Time,TemperatureF,DewpointF,PressureIn,WindDirection,WindDirectionDegrees,WindSpeedMPH,WindSpeedGustMPH,Humidity,HourlyPrecipIn,Conditions,Clouds,dailyrainin,SolarRadiationWatts/m^2,SoftwareType,DateUTC
2013-03-25 00:02:00,61.0,57.0,-100.00,SSE,148,8.0,11.0,86,0.00,,,0.01,0.000000,,2013-03-25 10:02:00,
2013-03-25 00:12:00,61.0,57.0,-100.00,SSE,148,8.0,11.0,86,0.00,,,0.01,0.000000,,2013-03-25 10:12:00,
2013-03-25 00:22:00,61.0,57.0,-100.00,SSE,148,8.0,11.0,86,0.00,,,0.01,0.000000,,2013-03-25 10:22:00,
2013-03-25 00:32:00,61.0,57.0,-100.00,SSE,148,8.0,11.0,86,0.00,,,0.01,0.000000,,2013-03-25 10:32:00,
2013-03-25 01:03:00,61.0,55.0,-100.00,SSE,155,6.0,12.0,81,0.00,,,0.01,0.000000,,2013-03-25 11:03:00,
2013-03-25 01:12:00,61.0,55.0,-100.00,SSE,155,6.0,12.0,81,0.00,,,0.01,0.000000,,2013-03-25 11:12:00,
2013-03-25 01:23:00,61.0,55.0,-100.00,SSE,155,6.0,12.0,81,0.00,,,0.01,0.000000,,2013-03-25 11:23:00,
2013-03-25 01:32:00,61.0,55.0,-100.00,SSE,155,6.0,12.0,81,0.00,,,0.01,0.000000,,2013-03-25 11:32:00,
2013-03-25 02:02:00,58.0,53.0,-100.00,South,180,2.0,9.0,82,0.00,,,0.01,0.000000,,2013-03-25 12:02:00,
2013-03-25 02:12:00,58.0,53.0,-100.00,South,180,2.0,9.0,82,0.00,,,0.01,0.000000,,2013-03-25 12:12:00,
2013-03-25 02:22:00,58.0,53.0,-100.00,South,180,2.0,9.0,82,0.00,,,0.01,0.000000,,2013-03-25 12:22:00,
2013-03-25 02:32:00,58.0,53.0,-100.00,South,180,2.0,9.0,82,0.00,,,0.01,0.000000,,2013-03-25 12:32:00,
2013-03-25 03:02:00,57.0,53.0,-100.00,SSE,150,6.0,10.0,86,0.00,,,0.01,0.000000,,2013-03-25 13:02:00,
2013-03-25 03:12:00,57.0,53.0,-100.00,SSE,150,6.0,10.0,86,0.00,,,0.01,0.000000,,2013-03-25 13:12:00,
2013-03-25 03:22:00,57.0,53.0,-100.00,SSE,150,6.0,10.0,86,0.00,,,0.01,0.000000,,2013-03-25 13:22:00,
2013-03-25 03:32:00,57.0,53.0,-100.00,SSE,150,6.0,10.0,86,0.00,,,0.01,0.000000,,2013-03-25 13:32:00,
2013-03-25 04:02:00,58.0,53.0,-100.00,SSE,160,6.0,9.0,84,0.00,,,0.01,0.000000,,2013-03-25 14:02:00,
2013-03-25 04:12:00,58.0,53.0,-100.00,SSE,160,6.0,9.0,84,0.00,,,0.01,0.000000,,2013-03-25 14:12:00,
2013-03-25 04:22:00,58.0,53.0,-100.00,SSE,160,6.0,9.0,84,0.00,,,0.01,0.000000,,2013-03-25 14:22:00,
2013-03-25 04:32:00,58.0,53.0,-100.00,SSE,160,6.0,9.0,84,0.00,,,0.01,0.000000,,2013-03-25 14:32:00,
2013-03-25 05:02:00,56.0,53.0,-100.00,SSE,154,1.0,10.0,90,0.00,,,0.01,0.000000,,2013-03-25 15:02:00,
2013-03-25 05:12:00,56.0,53.0,-100.00,SSE,154,1.0,10.0,90,0.00,,,0.01,0.000000,,2013-03-25 15:12:00,
2013-03-25 05:22:00,56.0,53.0,-100.00,SSE,154,1.0,10.0,90,0.00,,,0.01,0.000000,,2013-03-25 15:22:00,
2013-03-25 05:32:00,56.0,53.0,-100.00,SSE,154,1.0,10.0,90,0.00,,,0.01,0.000000,,2013-03-25 15:32:00,
2013-03-25 06:03:00,54.0,51.0,-100.00,SE,140,6.0,10.0,91,0.00,,,0.01,0.000000,,2013-03-25 16:03:00,
2013-03-25 06:12:00,54.0,51.0,-100.00,SE,140,6.0,10.0,91,0.00,,,0.01,0.000000,,2013-03-25 16:12:00,
2013-03-25 06:22:00,54.0,51.0,-100.00,SE,140,6.0,10.0,91,0.00,,,0.01,0.000000,,2013-03-25 16:22:00,
2013-03-25 06:32:00,54.0,51.0,-100.00,SE,140,6.0,10.0,91,0.00,,,0.01,0.000000,,2013-03-25 16:32:00,
2013-03-25 07:02:00,56.0,55.0,-100.00,SE,142,7.0,8.0,95,0.00,,,-99.99,1.000000,,2013-03-25 17:02:00,
2013-03-25 07:12:00,56.0,55.0,-100.00,SE,142,7.0,8.0,95,0.00,,,-99.99,1.000000,,2013-03-25 17:12:00,
2013-03-25 07:23:00,56.0,55.0,-100.00,SE,142,7.0,8.0,95,0.00,,,-99.99,1.000000,,2013-03-25 17:23:00,
2013-03-25 07:32:00,56.0,55.0,-100.00,SE,142,7.0,8.0,95,0.00,,,-99.99,1.000000,,2013-03-25 17:32:00,
2013-03-25 08:03:00,63.0,56.0,-100.00,SE,144,5.0,9.0,78,0.00,,,0.01,49.000000,,2013-03-25 18:03:00,
2013-03-25 08:12:00,63.0,56.0,-100.00,SE,144,5.0,9.0,78,0.00,,,0.01,49.000000,,2013-03-25 18:12:00,
2013-03-25 08:22:00,63.0,56.0,-100.00,SE,144,5.0,9.0,78,0.00,,,0.01,49.000000,,2013-03-25 18:22:00,
2013-03-25 08:32:00,63.0,56.0,-100.00,SE,144,5.0,9.0,78,0.00,,,0.01,49.000000,,2013-03-25 18:32:00,
2013-03-25 09:02:00,71.0,56.0,-100.00,NW,317,0.0,8.0,59,0.00,,,0.01,320.000000,,2013-03-25 19:02:00,
2013-03-25 09:12:00,71.0,56.0,-100.00,NW,317,0.0,8.0,59,0.00,,,0.01,320.000000,,2013-03-25 19:12:00,
2013-03-25 09:22:00,71.0,56.0,-100.00,NW,317,0.0,8.0,59,0.00,,,0.01,320.000000,,2013-03-25 19:22:00,
2013-03-25 09:32:00,71.0,56.0,-100.00,NW,317,0.0,8.0,59,0.00,,,0.01,320.000000,,2013-03-25 19:32:00,
2013-03-25 10:02:00,73.0,56.0,-100.00,NW,322,5.0,8.0,56,0.00,,,0.01,686.000000,,2013-03-25 20:02:00,
2013-03-25 10:12:00,73.0,56.0,-100.00,NW,322,5.0,8.0,56,0.00,,,0.01,686.000000,,2013-03-25 20:12:00,
2013-03-25 10:22:00,73.0,56.0,-100.00,NW,322,5.0,8.0,56,0.00,,,0.01,686.000000,,2013-03-25 20:22:00,
2013-03-25 10:32:00,73.0,56.0,-100.00,NW,322,5.0,8.0,56,0.00,,,0.01,686.000000,,2013-03-25 20:32:00,
2013-03-25 11:02:00,74.0,56.0,-100.00,NW,318,3.0,11.0,53,0.00,,,0.01,790.000000,,2013-03-25 21:02:00,
2013-03-25 11:12:00,74.0,56.0,-100.00,NW,318,3.0,11.0,53,0.00,,,0.01,790.000000,,2013-03-25 21:12:00,
2013-03-25 11:22:00,74.0,56.0,-100.00,NW,318,3.0,11.0,53,0.00,,,0.01,790.000000,,2013-03-25 21:22:00,
2013-03-25 11:32:00,74.0,56.0,-100.00,NW,318,3.0,11.0,53,0.00,,,0.01,790.000000,,2013-03-25 21:32:00,
2013-03-25 12:03:00,76.0,59.0,-100.00,NW,315,6.0,14.0,56,0.00,,,0.01,956.000000,,2013-03-25 22:03:00,
2013-03-25 12:12:00,76.0,59.0,-100.00,NW,315,6.0,14.0,56,0.00,,,0.01,956.000000,,2013-03-25 22:12:00,
2013-03-25 12:23:00,76.0,59.0,-100.00,NW,315,6.0,14.0,56,0.00,,,0.01,956.000000,,2013-03-25 22:23:00,
2013-03-25 12:32:00,76.0,59.0,-100.00,NW,315,6.0,14.0,56,0.00,,,0.01,956.000000,,2013-03-25 22:32:00,
2013-03-25 13:02:00,73.0,60.0,-100.00,NW,314,8.0,14.0,64,0.00,,,-99.99,575.000000,,2013-03-25 23:02:00,
2013-03-25 13:12:00,73.0,60.0,-100.00,NW,314,8.0,14.0,64,0.00,,,-99.99,575.000000,,2013-03-25 23:12:00,
2013-03-25 13:22:00,73.0,60.0,-100.00,NW,314,8.0,14.0,64,0.00,,,-99.99,575.000000,,2013-03-25 23:22:00,
2013-03-25 13:32:00,73.0,60.0,-100.00,NW,314,8.0,14.0,64,0.00,,,-99.99,575.000000,,2013-03-25 23:32:00,
2013-03-25 14:02:00,73.0,61.0,-100.00,WNW,284,8.0,15.0,66,0.00,,,0.01,827.000000,,2013-03-26 00:02:00,
2013-03-25 14:12:00,73.0,61.0,-100.00,WNW,284,8.0,15.0,66,0.00,,,0.01,827.000000,,2013-03-26 00:12:00,
2013-03-25 14:22:00,73.0,61.0,-100.00,WNW,284,8.0,15.0,66,0.00,,,0.01,827.000000,,2013-03-26 00:22:00,
2013-03-25 14:32:00,73.0,61.0,-100.00,WNW,284,8.0,15.0,66,0.00,,,0.01,827.000000,,2013-03-26 00:32:00,
2013-03-25 15:02:00,72.0,62.0,-100.00,West,279,8.0,19.0,71,0.00,,,0.01,861.000000,,2013-03-26 01:02:00,
2013-03-25 15:12:00,72.0,62.0,-100.00,West,279,8.0,19.0,71,0.00,,,0.01,861.000000,,2013-03-26 01:12:00,
2013-03-25 15:22:00,72.0,62.0,-100.00,West,279,8.0,19.0,71,0.00,,,0.01,861.000000,,2013-03-26 01:22:00,
2013-03-25 15:32:00,72.0,62.0,-100.00,West,279,8.0,19.0,71,0.00,,,0.01,861.000000,,2013-03-26 01:32:00,
2013-03-25 16:02:00,72.0,62.0,-100.00,WNW,283,6.0,16.0,71,0.00,,,0.00,460.000000,,2013-03-26 02:02:00,
2013-03-25 16:12:00,72.0,62.0,-100.00,WNW,283,6.0,16.0,71,0.00,,,0.00,460.000000,,2013-03-26 02:12:00,
2013-03-25 16:22:00,72.0,62.0,-100.00,WNW,283,6.0,16.0,71,0.00,,,0.00,460.000000,,2013-03-26 02:22:00,
2013-03-25 16:31:00,72.0,62.0,-100.00,WNW,283,6.0,16.0,71,0.00,,,0.00,460.000000,,2013-03-26 02:31:00,
2013-03-25 17:02:00,73.0,61.0,-100.00,WNW,299,7.0,13.0,66,0.00,,,0.00,394.000000,,2013-03-26 03:02:00,
2013-03-25 17:12:00,73.0,61.0,-100.00,WNW,299,7.0,13.0,66,0.00,,,0.00,394.000000,,2013-03-26 03:12:00,
2013-03-25 17:22:00,73.0,61.0,-100.00,WNW,299,7.0,13.0,66,0.00,,,0.00,394.000000,,2013-03-26 03:22:00,
2013-03-25 17:33:00,73.0,61.0,-100.00,WNW,299,7.0,13.0,66,0.00,,,0.00,394.000000,,2013-03-26 03:33:00,
2013-03-25 18:03:00,70.0,59.0,-100.00,WNW,288,4.0,12.0,69,0.00,,,0.00,251.000000,,2013-03-26 04:03:00,
2013-03-25 18:12:00,70.0,59.0,-100.00,WNW,288,4.0,12.0,69,0.00,,,0.00,251.000000,,2013-03-26 04:12:00,
2013-03-25 18:23:00,70.0,59.0,-100.00,WNW,288,4.0,12.0,69,0.00,,,0.00,251.000000,,2013-03-26 04:23:00,
2013-03-25 18:32:00,70.0,59.0,-100.00,WNW,288,4.0,12.0,69,0.00,,,0.00,251.000000,,2013-03-26 04:32:00,
2013-03-25 19:02:00,69.0,61.0,-100.00,WSW,253,1.0,9.0,76,0.00,,,0.00,63.000000,,2013-03-26 05:02:00,
2013-03-25 19:12:00,69.0,61.0,-100.00,WSW,253,1.0,9.0,76,0.00,,,0.00,63.000000,,2013-03-26 05:12:00,
2013-03-25 19:22:00,69.0,61.0,-100.00,WSW,253,1.0,9.0,76,0.00,,,0.00,63.000000,,2013-03-26 05:22:00,
2013-03-25 19:32:00,69.0,61.0,-100.00,WSW,253,1.0,9.0,76,0.00,,,0.00,63.000000,,2013-03-26 05:32:00,
2013-03-25 20:02:00,66.0,61.0,-100.00,North,11,2.0,6.0,85,0.00,,,0.00,0.000000,,2013-03-26 06:02:00,
2013-03-25 20:12:00,66.0,61.0,-100.00,North,11,2.0,6.0,85,0.00,,,0.00,0.000000,,2013-03-26 06:12:00,
2013-03-25 20:22:00,66.0,61.0,-100.00,North,11,2.0,6.0,85,0.00,,,0.00,0.000000,,2013-03-26 06:22:00,
2013-03-25 20:32:00,66.0,61.0,-100.00,North,11,2.0,6.0,85,0.00,,,0.00,0.000000,,2013-03-26 06:32:00,
2013-03-25 21:02:00,65.0,64.0,-100.00,WNW,296,0.0,5.0,96,0.00,,,0.00,0.000000,,2013-03-26 07:02:00,
2013-03-25 21:12:00,65.0,64.0,-100.00,WNW,296,0.0,5.0,96,0.00,,,0.00,0.000000,,2013-03-26 07:12:00,
2013-03-25 21:22:00,65.0,64.0,-100.00,WNW,296,0.0,5.0,96,0.00,,,0.00,0.000000,,2013-03-26 07:22:00,
2013-03-25 21:32:00,65.0,64.0,-100.00,WNW,296,0.0,5.0,96,0.00,,,0.00,0.000000,,2013-03-26 07:32:00,
2013-03-25 22:02:00,62.0,62.0,-100.00,East,86,0.0,2.0,99,0.00,,,0.00,0.000000,,2013-03-26 08:02:00,
2013-03-25 22:12:00,62.0,62.0,-100.00,East,86,0.0,2.0,99,0.00,,,0.00,0.000000,,2013-03-26 08:12:00,
2013-03-25 22:22:00,62.0,62.0,-100.00,East,86,0.0,2.0,99,0.00,,,0.00,0.000000,,2013-03-26 08:22:00,
2013-03-25 22:31:00,62.0,62.0,-100.00,East,86,0.0,2.0,99,0.00,,,0.00,0.000000,,2013-03-26 08:31:00,
2013-03-25 23:02:00,63.0,62.0,-100.00,SE,142,2.0,5.0,95,0.00,,,0.00,0.000000,,2013-03-26 09:02:00,
2013-03-25 23:12:00,63.0,62.0,-100.00,SE,142,2.0,5.0,95,0.00,,,0.00,0.000000,,2013-03-26 09:12:00,
2013-03-25 23:22:00,63.0,62.0,-100.00,SE,142,2.0,5.0,95,0.00,,,0.00,0.000000,,2013-03-26 09:22:00,
2013-03-25 23:32:00,63.0,62.0,-100.00,SE,142,2.0,5.0,95,0.00,,,0.00,0.000000,,2013-03-26 09:32:00,